Regional Weather Roundup
Issued by NWS

Home | Current Version | Previous Version | Text Only | Print | Product List | Glossary On
Versions: 1 2 3 4 5 6 7 8 9 10 11 12 13 14 15 16 17 18 19 20 21 22 23 24 25 26 27
000
ASUS44 KBMX 170110
RWRAL

ALABAMA REGIONAL WEATHER ROUNDUP
NATIONAL WEATHER SERVICE BIRMINGHAM AL
800 PM CDT WED APR 16 2014

NOTE: "FAIR" INDICATES FEW OR NO CLOUDS BELOW 12,000 FEET
WITH NO SIGNIFICANT WEATHER AND/OR OBSTRUCTIONS TO VISIBILITY.

THE REMARK "TC" DENOTES TEMPERATURE IN DEGREES CELSIUS.

ALZ001>011-014-016>018-020-170200-
NORTH ALABAMA

CITY           SKY/WX    TMP DP  RH WIND       PRES   REMARKS
MUSCLE SHOALS  CLEAR     54  36  50 CALM      30.17R
HUNTSVILLE     PTCLDY    57  35  43 E6        30.17R
DECATUR        CLEAR     55  35  47 SE5       30.17R
HALEYVILLE     FAIR      51  36  56 CALM      30.18R
GADSDEN        NOT AVBL
$$

ALZ012-013-022-023-030>036-040>044-170200-
WEST CENTRAL ALABAMA

CITY           SKY/WX    TMP DP  RH WIND       PRES   REMARKS
TUSCALOOSA     CLEAR     57  37  47 SE3       30.16R
$$

ALZ015-024>027-033>036-040>044-170200-
CENTRAL ALABAMA

CITY           SKY/WX    TMP DP  RH WIND       PRES   REMARKS
BIRMINGHAM     CLEAR     60  31  33 CALM      30.19R
MONTGOMERY     CLEAR     57  37  47 E5        30.19R
SHELBY CO ARPT CLEAR     57  39  51 SE3       30.18R
MAXWELL AFB    CLEAR     62  38  42 E6        30.18R
GREENVILLE     FAIR      54  41  61 CALM      30.17R
$$

ALZ019-021-028-029-037-038-045>048-170200-
EAST CENTRAL ALABAMA

CITY           SKY/WX    TMP DP  RH WIND       PRES   REMARKS
ANNISTON       CLEAR     58  31  35 E3        30.19S
ALEXANDER CITY CLEAR     58  36  43 CALM      30.20R
AUBURN         CLEAR     54  32  43 E8        30.22S
$$

ALZ051>064-170200-
SOUTHWEST ALABAMA

CITY           SKY/WX    TMP DP  RH WIND       PRES   REMARKS
MOBILE         PTCLDY    54  46  74 S7        30.15S
BROOKLEY FIELD PTCLDY    56  47  71 S3        30.16S
EVERGREEN      PTCLDY    54  45  71 CALM      30.18R
$$

ALZ049-050-065>069-170200-
SOUTHEAST ALABAMA

CITY           SKY/WX    TMP DP  RH WIND       PRES   REMARKS
DOTHAN         CLEAR     57  38  48 E5        30.22R
OZARK          CLEAR     56  37  48 E5        30.19R
TROY           CLEAR     56  34  43 CALM      30.19R
EUFAULA        FAIR      57  37  47 E5        30.19R
$$



USA.gov is the U.S. government's official web portal to all federal, state and local government web resources and services.